Voltar ao catálogo

STARLINK-35132

AtivoComunicaçõesVLEO
NORAD 66461·PAYLOAD·🇺🇸 United States

Lançado Nov 15, 2025 de Cape Canaveral Space Force Station

Loading…

Próximas Passagens (próximas 24 horas)

TLE

AtualizadoSource: CelesTrak SupGP

Época: Sep 15, 2026, 03:27 UTC

1 66461C 25262F   26258.14423611  .00029284  00000+0  10606-2 0  2582
2 66461  43.0004 306.0650 0001415 267.3738  69.4800 15.27566573    18

Acompanhe STARLINK-35132 em tempo real com AllMySat

Download on the App Store